weather.gov     
National Weather Service

Regional Weather Roundup
NWS Homepage
This page is being discontinued on March 12, 2014.
The same data is available at this site. Please update your bookmarks.
Thank you, and we apologize for the inconvenience.
Please send an email to SR-SRH.Webmaster@noaa.gov with any concerns.


Current Version
Previous Version:    01  02  03  04  05  06  07  08  09  10  11  12  13  14  15  16  17  18  19  20  21  22  23  24  25  26  27  28  29  30  
   31  32  33  34  35  36  37  38  39  40  41  42  43  44  45  46  47  48  49  50  51  52  53  54  55  56  57  58  59  60  
[Printable]
326
ASCA44 KEWX 230020
RWRMX

LATIN AMERICA AND CARIBBEAN REGIONAL WEATHER ROUNDUP
NATIONAL WEATHER SERVICE AUSTIN/SAN ANTONIO TX
700 PM CDT WED OCT 22 2014

NOTE: "FAIR" INDICATED FEW OR NO CLOUDS BELOW 12,000 FEET WITH NO
SIGNIFICANT WEATHER AND/OR OBSTRUCTIONS TO VISIBILITY.

BAJA CALIFORNIA

CITY           SKY/WX    TMP DP  RH WIND       PRES   REMARKS
LORETO           N/A    N/A N/A N/A MISG        N/A
LA PAZ         MOSUNNY   86  61  42 NE12      29.82
MEXICALI       SUNNY     93  43  17 S5        29.84
S.J. DEL CABO  CLEAR     82  64  54 S9        29.84R
TIJUANA        MOSUNNY   75  54  46 NW7       29.93S

NORTHWESTERN MEXICO

CITY           SKY/WX    TMP DP  RH WIND       PRES   REMARKS
CULIACAN       MOCLDY    90  72  55 NW12      29.79  HX  96
DURANGO        MOCLDY    73  54  49 NE12      30.11R
GUAYMAS        CLEAR     86  72  62 S13       29.74  HX  92
HERMOSILLO     CLEAR     95  50  21 SW5       29.82  HX  92
CD. JUAREZ     PTCLDY    73  54  49 CALM      30.02
LOS MOCHIS     CLEAR     84  68  58 W12       29.81R
OBREGON          N/A    N/A N/A N/A MISG        N/A

NORTHEASTERN MEXICO

CITY           SKY/WX    TMP DP  RH WIND       PRES   REMARKS
CHIHUAHUA      PTCLDY    70  54  56 NE7       30.10
MATAMOROS      PTCLDY    77  70  78 NE7       30.00
MONCLOVA       DRIZZLE   72  68  88 VRB9      30.02R
MONTERREY      PTCLDY    75  68  78 NE8       29.99R
NUEVO LAREDO   MOCLDY    84  63  48 E6        29.99
REYNOSA        MOCLDY    77  64  65 E9        29.99
SALTILLO       MOCLDY    66  59  77 N12       30.16R
TORREON        MOCLDY    75  61  60 NW9       30.03S
CD. VICTORIA   PTCLDY    77  70  78 E6        29.97

WESTERN MEXICO

CITY           SKY/WX    TMP DP  RH WIND       PRES   REMARKS
AGUASCALIENTES PTCLDY    72  46  40 E13       30.15
COLIMA         MOCLDY    72  70  94 CALM      29.93R FOG
GUADALAJARA    MOCLDY    75  57  53 CALM      30.06
MANZANILLO     CLOUDY    79  77  94 NE6       29.78R
MAZATLAN       CLEAR     82  64  54 W12       29.76R
P. VALLARTA    LGT RAIN  79  77  94 NE3       29.80R
URUAPAN        CLOUDY    66  64  94 CALM      30.09S
ZACATECAS      MOCLDY    68  46  45 SE12      30.20R

CENTRAL MEXICO

CITY           SKY/WX    TMP DP  RH WIND       PRES   REMARKS
CUERNAVACA     MOCLDY    73  61  64 CALM      30.00R
MEXICO CITY    MOCLDY    68  50  52 N17       30.22R
MORELIA        LGT RAIN  68  57  68 W6        30.12
PUEBLA         MOCLDY    64  52  63 N5        30.23R
QUERETARO      MOCLDY    68  54  60 NE17      30.19R
S. LUIS POTOSI PTCLDY    66  52  59 E12       30.18S
TAMPICO        PTCLDY    81  73  78 N9        29.93R
TOLUCA         MOCLDY    63  45  51 NE9       30.27R

SOUTHERN MEXICO

CITY           SKY/WX    TMP DP  RH WIND       PRES   REMARKS
ACAPULCO       MOCLDY    81  75  83 CALM      29.78R
B. DE HUATULCO CLOUDY    77  72  83 CALM      29.86
OAXACA         MOCLDY    72  57  60 NW7       30.09R
P. ESCONDIDO   MOCLDY    82  75  78 W5        29.93R
VERACRUZ       MOCLDY    79  72  78 N17G29    29.83R
ZIHUATANEJO    MOCLDY    84  75  74 NW7       29.80R HX  92

YUCATAN PENINSULA

CITY           SKY/WX    TMP DP  RH WIND       PRES   REMARKS
CAMPECHE       MOCLDY    77  75  94 NE6       29.72R
CANCUN         CLOUDY    77  75  94 SE2       29.79R
CHETUMAL       MOCLDY    77  75  94 N6        29.73
CD. DEL CARMEN CLOUDY    81  77  89 NW9       29.72
COZUMEL        MOCLDY    73  73 100 CALM      29.79S
MERIDA         CLOUDY    77  75  94 CALM      29.77R
MINATITLAN       N/A    N/A N/A N/A MISG        N/A
TAPACHULA      MOCLDY    81  77  89 CALM      29.80R
TUX. GUTIERREZ DRIZZLE   73  72  94 CALM      29.87R FOG
VILLAHERMOSA   MOCLDY    79  75  89 CALM      29.79R

CENTRAL AMERICA

CITY           SKY/WX    TMP DP  RH WIND       PRES   REMARKS
BELIZE CITY    PTCLDY    82  79  89 CALM      29.73R HX  93
MANAGUA        PTCLDY    81  77  89 CALM      29.77S

CARIBBEAN

CITY           SKY/WX    TMP DP  RH WIND       PRES   REMARKS
ARUBA          PTCLDY    84  77  79 E15       29.83R HX  94
KINGSTON       PTCLDY    84  73  70 SE13      29.86R HX  91
NASSAU         CLOUDY    79  79 100 CALM      29.94R
SAN JUAN       PTCLDY    82  73  74 E6        29.94R
SANTO DOMINGO    N/A     79  72  78 CALM      29.89R
ST. KITTS      PTCLDY    82  75  78 NE14      29.94R
ST. MAARTEN    PTCLDY    82  73  74 E12       29.94R
ST. THOMAS     PTCLDY    81  73  78 E5        29.93

$$





U.S. Dept. of Commerce
NOAA National Weather Service
1325 East West Highway
Silver Spring, MD 20910
E-mail: w-nws.webmaster@noaa.gov
Page last modified: May 16, 2007
NATIONAL WEATHER SERVICE: for Safety, for Work, for Fun - FOR LIFE